EW0611 Weather Reports


time (UTC)temp
C
wind
direction
speed
KPH
gust
KPH
rain 1hr
cm
rain 24hr
cm
rain mn
cm
humidity
%
barometer
mb
20260510162516 27 0.0 1.6 0.00 0.00 0.00 43 1016.4
20260510161516 27 248 1.6 3.2 0.00 0.00 0.00 43 1016.3
20260510160516 27 225 1.6 4.8 0.00 0.00 0.00 49 1016.4
20260510155516 27 225 1.6 6.4 0.00 0.00 0.00 46 1016.5
20260510154516 26 225 1.6 4.8 0.00 0.00 0.00 48 1016.6
20260510153516 26 203 1.6 3.2 0.00 0.00 0.00 53 1016.8
20260510152516 26 248 1.6 3.2 0.00 0.00 0.00 55 1016.8
20260510151516 26 0.0 1.6 0.00 0.00 0.00 55 1016.6
20260510150516 26 0.0 1.6 0.00 0.00 0.00 59 1016.7
20260510145516 25 0.0 1.6 0.00 0.00 0.00 60 1016.5
20260510144537 25 0.0 1.6 0.00 0.00 0.00 65 1016.6
20260510143536 24 0.0 1.6 0.00 0.00 0.00 69 1016.4
20260510142536 23 0.0 3.2 0.00 0.00 0.00 70 1016.4
20260510141516 23 0.0 1.6 0.00 0.00 0.00 75 1016.4
20260510140516 22 0.0 1.6 0.00 0.00 0.00 76 1016.5
20260510135516 22 0.0 1.6 0.00 0.00 0.00 80 1016.4
20260510134516 21 0.0 3.2 0.00 0.00 0.00 83 1016.4
20260510133516 21 0.0 1.6 0.00 0.00 0.00 85 1016.5
20260510132516 20 0.0 1.6 0.00 0.00 0.00 87 1016.6
20260510131515 20 0.0 1.6 0.00 0.00 0.00 91 1016.4
20260510130516 18 0.0 3.2 0.00 0.00 0.00 91 1016.2
20260510125516 17 0.0 1.6 0.00 0.00 0.00 90 1016.0
20260510124515 17 0.0 0.0 0.00 0.00 0.00 90 1015.8
20260510123516 16 0.0 0.0 0.00 0.00 0.00 90 1015.8
20260510122535 16 0.0 0.0 0.00 0.00 0.00 90 1015.7
20260510121536 15 0.0 0.0 0.00 0.00 0.00 90 1015.7
20260510120516 15 0.0 0.0 0.00 0.00 0.00 90 1015.5
20260510115515 15 0.0 0.0 0.00 0.00 0.00 90 1015.5
20260510114515 15 0.0 0.0 0.00 0.00 0.00 90 1015.4
20260510113515 15 0.0 0.0 0.00 0.00 0.00 90 1015.4
20260510112516 14 0.0 0.0 0.00 0.00 0.00 90 1015.2
20260510111536 14 0.0 0.0 0.00 0.00 0.00 90 1015.0
20260510110536 14 0.0 0.0 0.00 0.00 0.00 90 1014.8
20260510105515 14 0.0 0.0 0.00 0.00 0.00 91 1014.6
20260510104515 14 0.0 0.0 0.00 0.00 0.00 91 1014.5
20260510103515 14 0.0 0.0 0.00 0.00 0.00 91 1014.3
20260510102516 14 0.0 0.0 0.00 0.00 0.00 91 1014.0
20260510101515 14 0.0 0.0 0.00 0.00 0.00 91 1014.1
20260510100516 14 0.0 0.0 0.00 0.00 0.00 91 1013.9
20260510095515 14 0.0 0.0 0.00 0.00 0.00 91 1013.7
20260510094515 14 0.0 0.0 0.00 0.00 0.00 91 1013.7
20260510093515 14 0.0 0.0 0.00 0.00 0.00 91 1013.6
20260510092515 14 0.0 0.0 0.00 0.00 0.00 91 1013.6
20260510091515 14 0.0 0.0 0.00 0.00 0.00 91 1013.4
20260510090516 14 0.0 0.0 0.00 0.00 0.00 91 1013.3
20260510085515 14 0.0 0.0 0.00 0.00 0.00 91 1013.1
20260510084515 15 0.0 0.0 0.00 0.00 0.00 91 1013.1
20260510083515 15 0.0 0.0 0.00 0.00 0.00 91 1013.2
20260510082515 15 0.0 0.0 0.00 0.00 0.00 91 1013.1
20260510081535 15 0.0 0.0 0.00 0.00 0.00 91 1013.0
20260510080516 15 0.0 0.0 0.00 0.00 0.00 91 1013.1
20260510075515 15 0.0 0.0 0.00 0.00 0.00 91 1013.1
20260510074515 15 0.0 0.0 0.00 0.00 0.00 91 1013.0
20260510073515 15 0.0 0.0 0.00 0.00 0.00 91 1012.9
20260510072515 15 0.0 0.0 0.00 0.00 0.00 91 1012.8
20260510071515 15 0.0 0.0 0.00 0.00 0.00 91 1012.8
20260510070515 15 0.0 0.0 0.00 0.00 0.00 91 1012.7
20260510065515 15 0.0 0.0 0.00 0.00 0.00 91 1012.7
20260510064516 15 0.0 0.0 0.00 0.00 0.00 91 1012.9
20260510063515 15 0.0 0.0 0.00 0.00 0.00 91 1012.7
20260510062535 15 0.0 0.0 0.00 0.00 0.00 91 1012.7
20260510061515 15 0.0 0.0 0.00 0.00 0.00 91 1012.9
20260510060535 15 0.0 0.0 0.00 0.00 0.00 91 1013.1
20260510055515 15 0.0 0.0 0.00 0.00 0.00 91 1013.0
20260510054515 15 0.0 0.0 0.00 0.00 0.00 91 1013.1
20260510053516 15 0.0 0.0 0.00 0.00 0.00 91 1013.2
20260510052517 15 0.0 0.0 0.00 0.00 0.00 91 1013.2
20260510051518 15 0.0 0.0 0.00 0.00 0.00 91 1013.3
20260510050516 15 0.0 0.0 0.00 0.00 0.00 91 1013.4
20260510045516 16 0.0 0.0 0.00 0.00 0.00 91 1013.5
20260510044516 16 0.0 0.0 0.00 0.00 0.00 91 1013.4
20260510043516 16 0.0 0.0 0.00 0.00 0.00 91 1013.3
20260510042516 16 0.0 0.0 0.00 0.00 0.00 91 1013.2
20260510041516 16 0.0 0.0 0.00 0.00 0.00 91 1013.2
20260510040516 16 0.0 0.0 0.00 0.00 0.00 91 1013.3
20260510035516 16 0.0 0.0 0.00 0.00 0.00 91 1013.3
20260510034516 16 0.0 0.0 0.00 0.00 0.00 91 1013.2
20260510033516 16 0.0 0.0 0.00 0.00 0.00 91 1013.1
20260510032537 16 0.0 0.0 0.00 0.00 0.00 91 1013.1
20260510031516 16 0.0 1.6 0.00 0.00 0.00 91 1013.1
20260510030516 16 0.0 0.0 0.00 0.00 0.00 91 1012.9
20260510025516 16 0.0 0.0 0.00 0.00 0.00 91 1012.8
20260510024516 17 0.0 1.6 0.00 0.00 0.00 91 1012.9
20260510023517 17 0.0 0.0 0.00 0.00 0.00 91 1012.9
20260510022536 17 0.0 0.0 0.00 0.00 0.00 91 1012.8
20260510021516 17 0.0 1.6 0.00 0.00 0.00 91 1013.0
20260510020516 17 0.0 0.0 0.00 0.00 0.00 91 1012.7
20260510015516 17 0.0 0.0 0.00 0.00 0.00 90 1012.6
20260510014516 17 0.0 1.6 0.00 0.00 0.00 90 1012.6
20260510013516 17 0.0 0.0 0.00 0.00 0.00 89 1012.3
20260510012536 18 0.0 0.0 0.00 0.00 0.00 89 1012.1
20260510011516 18 0.0 0.0 0.00 0.00 0.00 89 1011.9
20260510010517 18 0.0 0.0 0.00 0.00 0.00 87 1011.9
20260510005516 18 0.0 0.0 0.00 0.00 0.00 87 1011.8
20260510004516 18 0.0 0.0 0.00 0.00 0.00 86 1011.9
20260510003516 19 0.0 0.0 0.00 0.00 0.00 85 1011.9
20260510002516 20 0.0 1.6 0.00 0.00 0.00 84 1011.9
20260510001516 20 0.0 0.0 0.00 0.00 0.00 83 1011.8
20260510000515 20 0.0 0.0 0.00 0.00 0.00 82 1011.6
20260509235516 20 0.0 1.6 0.00 0.00 0.00 81 1011.4
20260509234515 21 0.0 1.6 0.00 0.00 0.00 79 1011.1
20260509233516 21 0.0 1.6 0.00 0.00 0.00 79 1011.1
20260509232536 21 0.0 0.0 0.00 0.00 0.00 77 1011.1
20260509231536 21 0.0 1.6 0.00 0.00 0.00 76 1011.0
20260509230516 22 0.0 0.0 0.00 0.00 0.00 75 1010.9
20260509225516 22 0.0 3.2 0.00 0.00 0.00 74 1010.7
20260509224536 22 0.0 1.6 0.00 0.00 0.00 73 1010.8
20260509223516 22 0.0 3.2 0.00 0.00 0.00 72 1010.9
20260509222516 22 0.0 3.2 0.00 0.00 0.00 72 1011.0
20260509221515 22 338 1.6 3.2 0.00 0.00 0.00 71 1010.8
20260509220516 22 113 1.6 3.2 0.00 0.00 0.00 71 1010.9
20260509215536 22 23 1.6 3.2 0.00 0.00 0.00 72 1010.8
20260509214516 22 0.0 4.8 0.00 0.00 0.00 71 1010.9
20260509213516 22 0.0 4.8 0.00 0.00 0.00 71 1010.8
20260509212516 22 0.0 3.2 0.00 0.00 0.00 70 1010.7
20260509211515 22 0.0 1.6 0.00 0.00 0.00 71 1010.5
20260509210515 22 338 1.6 6.4 0.00 0.00 0.00 70 1010.6
20260509205516 22 315 1.6 8.0 0.00 0.00 0.00 70 1010.8
20260509204515 22 270 1.6 4.8 0.00 0.00 0.00 69 1010.7
20260509203515 22 315 1.6 3.2 0.00 0.00 0.00 69 1010.8
20260509202516 23 0.0 3.2 0.00 0.00 0.00 67 1010.6
20260509201515 23 23 1.6 4.8 0.00 0.00 0.00 66 1010.7
20260509200515 23 0.0 3.2 0.00 0.00 0.00 66 1010.9
20260509195516 23 0.0 3.2 0.00 0.00 0.00 65 1011.0
20260509194535 23 0.0 4.8 0.00 0.00 0.00 63 1011.1
20260509193515 23 225 1.6 4.8 0.00 0.00 0.00 63 1011.1
20260509192515 22 0.0 3.2 0.00 0.00 0.00 64 1011.3
20260509191535 23 248 1.6 4.8 0.00 0.00 0.00 62 1011.4
20260509190516 23 90 1.6 4.8 0.00 0.00 0.00 60 1011.6
20260509185535 24 0.0 3.2 0.00 0.00 0.00 59 1011.5
20260509184515 25 315 1.6 3.2 0.00 0.00 0.00 57 1011.4
20260509183515 25 248 1.6 3.2 0.00 0.00 0.00 57 1011.4
20260509182535 25 270 1.6 4.8 0.00 0.00 0.00 56 1011.4
20260509181515 24 270 1.6 8.0 0.00 0.00 0.00 57 1011.6
20260509180515 24 248 3.2 12.9 0.00 0.00 0.00 57 1012.0
20260509175536 23 270 1.6 4.8 0.00 0.00 0.00 57 1012.0
20260509174515 23 0.0 4.8 0.00 0.00 0.00 60 1012.1
20260509173515 23 248 1.6 6.4 0.00 0.00 0.00 60 1012.3
20260509172515 23 315 1.6 8.0 0.00 0.00 0.00 61 1012.3
20260509171535 23 293 1.6 3.2 0.00 0.00 0.00 64 1012.5
20260509170516 22 293 1.6 6.4 0.00 0.00 0.00 64 1012.6
20260509165515 22 270 1.6 4.8 0.00 0.00 0.00 65 1012.9
20260509164515 22 0 1.6 3.2 0.00 0.00 0.00 65 1012.8
20260509163515 22 270 1.6 6.4 0.00 0.00 0.00 64 1012.7